Погода Нарьян-Мар

Погода Нарьян-Мар : погода сейчас, прогноз погоды и архив. Всё, что Вы хотите узнать о погоде Нарьян-Мар!

Хотите узнать прогноз погоды Нарьян-Мар? Тогда Вам сюда: Погода Нарьян-Мар

Поиск расширенной информации на нашем сайте:

Другие новости

Новости СМИ2

Главная страница сайта

Новости сайта

03.07.2017

Напоминаем, что на нашем специализированном сайте Метеоцентр.Азия вы можете получить высокодетализированные автоматические прогнозы погоды по пунктам России, СНГ и мира в авиационном формате (включающие направление и скорость ветра, видимость, явления погоды, количество и форму облачности, нижнюю и верхнюю границу облачности).


Погода Нарьян-Мар - сегодня

Время (UTC), дата Ветер
(°,м/с) 
Видим.   Явления Облачность Т
(°С)
Тd
(°С)
f(%) Тe
(°С)
Pmin
(гПа)
dP
(гПа)
Po
(мм)
O2
(г/м3)
Тmin Tmax R s Состояние
почвы
09 15.09.18 180 (Ю) 20000 м    10/10 720 м 
[Sc]
+9.2 +6 80 +9  1013.8  0.4  759  295           
12 15.09.18 190 (Ю) 20000 м    10/10 420 м кучево-дожд. 
[Cb calv]
+10.5 +7.2 80 +10  1014.2  0.4  760  294           
15 15.09.18 170 (Ю) 20000 м    10/8 1410 м средняя 
[Sc|Ac trans]
+9.4 +7.9 90 +10  1014.5  0.3  760  295    +10.6       
18 15.09.18 170 (Ю) 20000 м    10/10 1320 м 
[Sc]
+9.3 +7.6 89 +9  1014.7  0.2  760  295           
21 15.09.18 170 (Ю) 20000 м    ясно 
+6.6 +5.5 93 +8  1014.8  0.1  760  298           
00 16.09.18 190 (Ю) 0500 м  туман  ?/?  
+4.3 +3.5 95 +5  1015.2  0.4  760  301           
03 16.09.18 170 (Ю) 1000 м  дымка{туман}  3/3 200 м 
[St]
+3.1 +2.4 95 +3  1015.2  760  303  +2.3         
09 16.09.18 180 (Ю) 20000 м    9/1 600 м средняя, верхняя 
[Sc|Ac trans|Ci fib]
+11.1 +8.1 82 +10  1014.9  -0.5  760  293           
12 16.09.18 180 (Ю) 20000 м    9/3 600 м средняя, верхняя 
[Sc|Ac trans|Ci fib]
+12.9 +8.4 74 +12  1013.9  -0.9  759  291           
15 16.09.18 160 (Ю) 20000 м    10/0 средняя, верхняя 
[Ac trans|Cs]
+11 +8.1 82 +11  1012.9  -1  759  292    +13.5       
18 16.09.18 160 (Ю) 20000 м    10/6 800 м средняя 
[Sc|Ac trans]
+11 +8 82 +11  1011.6  -1.3  758  292           
21 16.09.18 170 (Ю) 10 км  слаб. дождь  10/0 средняя 
[Ac As]
+11.1 +8.8 86 +11  1010.3  -1.3  757  291           
00 17.09.18 160 (Ю) 20000 м  {дождь}  10/0 средняя 
[Ac As]
+10.7 +8.3 85 +10  1008  -2.3  755  291           
06 17.09.18 140 (ЮВ) 10 км  слаб. дождь  10/0 средняя 
[As op]
+10.8 +8.6 86 +10  1002.5  -2.8  751  290           
09 17.09.18 140 (ЮВ) 4{10}  10 км  слаб. дождь  10/9 330 м средняя 
[Frnb|As op]
+10.2 +8.9 92 +9  997.8  -4.7  747  289           
15 17.09.18 190 (Ю) 10 км  слаб. дождь  10/10 270 м 
[Frnb|Ns]
+11 +10 94 +12  993.5  -1.5  744  286    +11.2     
18 17.09.18 250 (З) 4{13}  н/о    н/о 
+8.4 +6.8 90 +7  994.1  0.6  745  290           
21 17.09.18 220 (ЮЗ) 20000 м    9/6 1300 м средняя 
[Sc|Ac trans]
+8.3 +6.9 91 +7  994.5  0.4  745  290           
00 18.09.18 220 (ЮЗ) 20000 м    9/6 1200 м средняя 
[Sc|Ac trans]
+7.4 +5.9 90 +6  995  0.4  745  291           
03 18.09.18 220 (ЮЗ) 5{10}  20000 м    9/9 540 м 
[Sc]
+7.7 +5.5 86 +6  995.8  0.8  746  291  +6.8       
12 18.09.18 230 (ЮЗ) 6-11{13}  20000 м  {ливн. осадки}  6/4 1000 м средняя 
[Sc|Ac trans]
+11.4 +3.4 58 +10  998.1  0.5  748  289           
21 18.09.18 190 (Ю) 20000 м    8/3 1000 м средняя 
[Sc|Ac trans]
+6.1 +4.8 91 +5  999  -0.4  748  294           
00 19.09.18 190 (Ю) 20000 м    4/0 средняя, верхняя 
[Ac trans|Ci fib]
+5.4 +4.5 94 +4  998.5  -0.4  748  295           
06 19.09.18 210 (ЮЗ) 20000 м    4/1 600 м средняя, верхняя 
[Sc|Ac trans|Ci fib]
+8.5 +5.4 81 +7  998.6  0.1  748  291  +3.9         
21 19.09.18 240 (ЮЗ) 20000 м  {ливн. осадки}  10/10 300 м 
[St]
+7.6 +6.1 90 +6  1000.9  0.3  750  293           
Время (UTC), дата Ветер
(°,м/с) 
Видим.   Явления Облачность Т
(°С)
Тd
(°С)
f(%) Тe
(°С)
Pmin
(гПа)
dP
(гПа)
Po
(мм)
O2
(г/м3)
Тmin Tmax R s Состояние
почвы

Для получения пояснительной информации подведите курсор к названию столбца.

ПОГОДА Нарьян-Мар - архив

Всё, что Вы хотите узнать о погоде Нарьян-Мар - удобно и подробно!

Выберите нужную дату (начиная с 1 января 2015* года) и нажмите кнопку "Найти".
Будут отображены архивные сводки погоды по пункту Нарьян-Мар, начиная с указанной даты.


Отображать данные в формате CSV (для использования в таблицах Excel)


Внимание! Наш архив погоды предназначен исключительно для личного некоммерческого использования в познавательных целях. Если Вам необходимы официальные справки о состоянии погоды (для производственных, юридических, коммерческих и т.п. целей), обращайтесь в органы Росгидромета.

*Примечание: данная дата относится к архиву по метеостанциям СССР (Россия, СНГ, Балтия).
Архив по метеостанциям Зарубежной Европы и Азии (кроме Китая) хранится 10 дней, по другим регионам земного шара (Китай, Африка, Америка, Австралия, Океания) - 1 день.

Нарьян-Мар - район местоположения метеостанции


Название, широта, долгота, высота метеостанции:
Нарьян-Мар 67.6°ш. 53°д. 12 м над ур. моря [Российская Федерация]

Дополнительная информация

В oтличие oт бoльшинства пoгoдных сайтoв мы публикуем пoдрoбную метеoинфoрмацию в детальнoм прoфессиoнальнoм фoрмате.

Характеристики температуры и влажнoсти вoздуха измеряются на высoте 2 м в тени вдали oт зданий и деревьев.
Скoрoсть ветра измеряется на высoте 10 м (на урoвне рoста челoвека скoрoсть ветра ниже в 1.5-2 раза). Если метеoстанция нахoдится в гoрoде или в лесу, тo скoрoсть ветра занижена на 2-4 м/с пo сравнению с oткрытым местoм. Скoрoсть ветра над акватoриями крупных рек и oзёр, а также на вершинах хoлмoв на 2-5 м/с выше, чем в oбычных услoвиях.
Атмoсфернoе давление в разных тoчках местнoсти мoжет значительнo oтличаться oт давления на метеoстанции, в зависимoсти oт услoвий рельефа (при пoдъёме на 10 м давление пoнижается примернo на 1 мм рт.ст.).